sat.trackr.live / text

‹ back to catalog

STARLINK-4265

NORAD 53011 · 2022-076AB

PAYLOAD ACTIVE UNKNOWN

§ Identity

Operator
Country
US
Launch date
2022-07-07
Launch site
AFETR
Launch vehicle
Mass (kg)
RCS (m²)

Purposes: comms

External: N2YO · Heavens-Above · Gunter

§ Orbital elements

Epoch: 2026-09-19T16:23:26.453184Z

Period
93.85 min
Inclination
53.1606°
Eccentricity
0.0001270
Mean motion
15.34371280 rev/d
Perigee alt
461.9 km
Apogee alt
463.7 km
Semi-major
6,840.9 km
B*
-4.6505e-5
RAAN
285.2131°
Arg perigee
75.6685°
Mean anomaly
284.4458°
Rev number
23,237

§ Raw data

STARLINK-42651 53011U 22076AB  26262.68294506 -.00001946  00000+0 -46505-4 0  99902 53011  53.1606 285.2131 0001270  75.6685 284.4458 15.34371280232378

JSON: /api/v1/satellites/53011 · /tle

For live sub-satellite position, see the globe view (requires WebGL).

§ Visibility from observer

Set your observer location to see the next 7 days of passes ≥ 10°. The values pass through the URL so the page stays shareable.

No JS? Fill the form by hand. The geolocation button needs JavaScript.